SL-16 DEB, 29098

Orbit data source: Space-Track

SL-16 DEB, 29098 is space debris in LEO originally from a launch on Fri, 26 Mar 1993 UTC launched from the Tyuratam Missile And Space Complex (TTMTR). Debris objects in space refer to the collection of defunct objects orbiting the Earth. Examples of debris include non-operational satellites, rocket bodies, and fragments generated from explosions, collisions, or faulty payload assembly.

Loading next visibility...
SL-16 DEB details
Identifier
29098, 1993-016AM
Orbit
LEO
Last TLE update20 hours ago
Origin
Flag of CISRVSN RF (CIS)
ManufacturerUnknown
MissionSpacecraft
Bus & MotorUnknown
MassUnknown
Launch date (UTC)
1993-03-26 (32 years ago)
Launch vehicleUnknown
Launch site
Tyuratam Missile And Space Complex (TTMTR)
Object type
Payload
Rocket body
Debris
Shape & HBRUnknown
Radar Cross SectionSmall (<0.1 m²)

Expand to show TLE details & history

TLE from 20 hours ago
0 SL-16 DEB
1 29098U 93016AM  25023.74116993  .00003784  00000-0  18683-2 0  9999
2 29098  70.9256 163.7744 0085739 249.4926 175.3688 14.16141373598628
Epoch: 2025-01-23T17:47Z
Definitive object data (Epoch: 2025-01-23T17:47:17.081Z)
Latitude58.99341°
Longitude168.55085°
Altitude909.558 km
Speed7.371 km/s
True Right ascension13h 14m 44s
True Declination58° 50' 40"
Sunlit
Object was in daylight at TLE epoch
Visualization TLE readout
Latitude-69.45659°
Longitude18.52277°
Altitude803.72 km
Speed7.482 km/s
Apparent Right ascension02h 50m 17s
Apparent Declination-55° 30' 06"
Sunlit
Object is in daylight
Visualization observer readout
Local Sidereal Time14:37:45
Azimuth186.561° SSW
Elevation-74.277°
Doppler factor1
Orbital elements
Apogee altitude898.219 km
Perigee altitude774.506 km
Semi-major axis7,214.5 km
Eccentricity0.0085739
Inclination70.9256°
RAAN163.7744°
Arg. of periapsis249.4926°
True anomaly175.44729°
Mean anomaly175.3688°
Eccentric anomaly175.40813°
Mean motion3.54188 °/min
BSTAR0.0018683
Orbital period101.64 mins
Loading maneuver chart data...
Loading historical data...
Loading historical data...
Loading historical data...
Loading historical data...
Loading historical data...
Loading historical data...
Loading historical data...

SL-16 DEB Visibility forecast

Observer location: undefined°, undefined

Span
Click to sort rows by Start time (UTC) header in descending order
Start Az.
Max El. time (UTC)
Max El. Az.
Max El.
End time (UTC)
End Az.
9 mins2025-01-24 19:27:45.669Z354.773° N2025-01-24 19:32:45.669Z65.3° ENE31.009°2025-01-24 19:36:45.669Z120.968° SE
8 mins2025-01-24 21:12:45.669Z307.95° NW2025-01-24 21:16:45.669Z248.443° W26.992°2025-01-24 21:20:45.669Z199.241° SSW
10 mins2025-01-25 10:17:45.669Z196.113° SSW2025-01-25 10:21:45.669Z138.793° SSE44.529°2025-01-25 10:27:45.669Z25.406° NE
5 mins2025-01-25 12:04:45.669Z287.697° WNW2025-01-25 12:06:45.669Z311.672° NW16.765°2025-01-25 12:09:45.669Z344.946° N
|